Regional Weather Roundup
Issued by NWS

Home | Current Version | Previous Version | Text Only | Print | Product List | Glossary Off
Versions: 1 2 3 4 5 6 7 8 9 10 11 12 13 14 15 16 17 18 19 20 21 22 23 24 25 26 27 28 29 30 31 32 33 34 35 36 37 38 39 40 41 42 43 44 45 46 47 48 49 50

000
ASUS45 KBOI 191310
RWRID
WEATHER ROUNDUP FOR IDAHO
NATIONAL WEATHER SERVICE BOISE ID
700 AM MDT SUN APR 19 2015

NOTE: "FAIR" INDICATES FEW OR NO CLOUDS BELOW 12000 FEET
WITH NO SIGNIFICANT WEATHER AND/OR OBSTRUCTIONS TO VISIBILITY

IDZ012-014-191400-
SOUTHWEST IDAHO


CITY           SKY/WX    TMP DP  RH WIND       PRES   REMARKS
BOISE          PTCLDY    42  25  50 SE5       30.15R
CALDWELL       PTCLDY    43  21  42 W6        30.15S
$$

IDZ016-017-191400-
SOUTHCENTRAL IDAHO


CITY           SKY/WX    TMP DP  RH WIND       PRES   REMARKS
BURLEY         PTCLDY    36  24  62 NE7       30.14R WCI  30
JEROME         CLEAR     38  22  52 E13       30.14R WCI  30
TWIN FALLS     CLEAR     40  17  39 S12       30.13R WCI  33
$$

IDZ019>023-191400-
SOUTHEAST IDAHO


CITY           SKY/WX    TMP DP  RH WIND       PRES   REMARKS
IDAHO FALLS    PTCLDY    37  24  59 N10       30.17S WCI  30
POCATELLO      CLEAR     35  27  72 NE8       30.14S WCI  29
REXBURG        PTCLDY    34  23  64 NE6       30.18R WCI  29
$$

IDZ006-010-011-018-031-032-191400-
CENTRAL IDAHO MOUNTAINS


CITY           SKY/WX    TMP DP  RH WIND       PRES   REMARKS
MCCALL         PTCLDY    31  22  69 NE6       30.17F WCI  25
HAILEY         MOCLDY    36  25  64 NW9       30.18S WCI  29
STANLEY          N/A     28  18  66 E3        30.22R
SALMON         CLEAR     30  23  74 CALM      30.19R
CHALLIS        MOCLDY    35  17  47 CALM      30.18R
$$

IDZ002-004-006-007-026-191400-
NORTHERN IDAHO


CITY           SKY/WX    TMP DP  RH WIND       PRES   REMARKS
LEWISTON       CLEAR     44  30  57 E5        30.19R
LOWELL           N/A     36  33  89 CALM      30.28R
COEUR D`ALENE  PTCLDY    36  30  80 NE5       30.19S WCI  32
MULLAN PASS    PTCLDY    38  11  32 NW5       30.17S WCI  34
$$



USA.gov is the U.S. government's official web portal to all federal, state and local government web resources and services.